Flag for U.S.A. Weather past 2 weeks in Mesquite, Texas, U.S.A.

Now
46 °F

Fog.


Feels Like: 46 °F
Forecast: 42 / 53 °F
Wind: No wind

Location: Mesquite Metro Airport

Current Time: Dec 18, 2014 at 4:32:07 PM

Latest Report: Dec 18, 2014 at 1:50 PM


Visibility: 5 mi

Pressure: 30.12 "Hg

Humidity: 93%

Dew point: 45 °F

Location of MesquiteLocation

Historic Weather in Mesquite — Graph

°F

Mesquite temperature yesterday

Maximum temperature yesterday: 46 °F (at 2:50 PM)
Minimum temperature yesterday: 37 °F (at 12:35 AM)
Average temperature yesterday: 41 °F

Past Weeks' High & Low Weather Summary

 TemperatureHumidityPressure
High77 °F (Dec 5, 2:50 PM)100% (Dec 7, 7:50 AM)30.43 "Hg (Dec 7, 7:50 AM)
Low37 °F (Dec 9, 2:15 AM)32% (Dec 15, 2:50 PM)29.80 "Hg (Dec 14, 6:50 PM)
Average53 °F82%30.19 "Hg
* Reported Dec 3 1:50 PM — Dec 18 1:50 PM, Mesquite, Weather by CustomWeather, © 2014

Note: Actual official high and low records may vary slightly from our data, if they occured in-between our weather recording intervals... More about our weather records

Advertising

Mesquite weather history for previous 24 hours

 ConditionsComfort  
Time TempWeatherWind HumidityBarometerVisibility
1:50 PM
Dec 18
46 °FFog.No wind93%30.12 "Hg5 mi
12:50 PM46 °FFog.No wind93%30.15 "Hg4 mi
11:50 AM46 °FFog.No wind93%30.19 "Hg2 mi
10:50 AM45 °FFog.No wind100%30.19 "Hg2 mi
9:50 AM45 °FFog.No wind93%30.18 "Hg2 mi
8:50 AM43 °FFog.No wind100%30.17 "Hg1 mi
7:50 AM43 °FFog.No wind100%30.16 "Hg1 mi
6:50 AM43 °FFog.No wind100%30.14 "Hg2 mi
4:35 AM42 °FLow clouds.No wind97%30.12 "Hg5 mi
4:15 AM42 °FLow clouds.3 mph97%30.12 "Hg7 mi
3:55 AM42 °FLow clouds.6 mph96%30.12 "Hg7 mi
3:35 AM42 °FLow clouds.3 mph97%30.13 "Hg10 mi
3:15 AM42 °FLow clouds.3 mph97%30.13 "Hg10 mi
2:55 AM42 °FLow clouds.5 mph97%30.13 "Hg10 mi
2:35 AM42 °FLow clouds.5 mph97%30.14 "Hg10 mi
2:15 AM42 °FMostly cloudy.3 mph97%30.15 "Hg10 mi
1:55 AM41 °FMostly cloudy.5 mph97%30.14 "Hg10 mi
1:15 AM41 °FMostly cloudy.7 mph98%30.15 "Hg10 mi
12:55 AM40 °FLow clouds.6 mph98%30.16 "Hg10 mi
12:35 AM40 °FMostly cloudy.7 mph98%30.16 "Hg10 mi
12:15 AM40 °FOvercast.6 mph97%30.17 "Hg4 mi
11:55 PM
Dec 17
40 °FMostly cloudy.6 mph98%30.19 "Hg3 mi
11:35 PM40 °FLow clouds.5 mph98%30.19 "Hg2 mi
11:15 PM40 °FLow clouds.6 mph98%30.19 "Hg2 mi
10:55 PM40 °FLow clouds.5 mph98%30.19 "Hg3 mi
10:35 PM41 °FLow clouds.3 mph98%30.19 "Hg3 mi
10:15 PM41 °FLow clouds.5 mph97%30.18 "Hg3 mi
9:15 PM41 °FLow clouds.No wind97%30.19 "Hg2 mi
8:55 PM41 °FMostly cloudy.3 mph96%30.19 "Hg4 mi
7:55 PM41 °FMostly cloudy.No wind93%30.16 "Hg7 mi
6:55 PM43 °FMostly cloudy.No wind93%30.16 "Hg7 mi
5:50 PM43 °FRain. Overcast.No wind93%30.15 "Hg4 mi
4:50 PM45 °FRain. More clouds than sun.No wind81%30.14 "Hg2 mi
Weather by CustomWeather, © 2014

See weather overviewHow to use our weather pages